Location: Peterborough
(44.3091°N, 78.3197°W)
Time: 05:48:06
(UTC-04:00)

S-56A Canister/Altair - Visible Passes

Search period start: 22 March 2023 00:00
Search period end: 01 April 2023 00:00
Orbit: 638 x 2493 km, 38.9° (Epoch: 22 March)

Date Brightness Start Highest point End Pass type
(mag) Time Alt. Az. Time Alt. Az. Time Alt. Az.
22 Mar 10.0 00:08:19 10° W 00:19:38 58° WSW 00:19:38 58° WSW visible
22 Mar 11.3 02:14:48 10° W 02:17:03 16° W 02:17:03 16° W visible
22 Mar 9.9 21:29:58 10° WSW 21:42:54 62° SSE 21:51:14 32° E visible
22 Mar 9.8 23:34:51 10° W 23:48:39 70° SSW 23:48:39 70° SSW visible
23 Mar 11.0 01:41:03 10° W 01:46:04 25° W 01:46:04 25° W visible
23 Mar 9.9 20:57:00 10° SW 21:09:18 59° SSE 21:20:09 22° E visible
23 Mar 9.8 23:01:29 10° W 23:15:35 71° S 23:17:34 66° SE visible
24 Mar 10.6 01:07:23 10° W 01:14:59 36° W 01:14:59 36° W visible
24 Mar 10.0 20:24:07 10° SW 20:35:47 56° SSE 20:49:00 13° E visible
24 Mar 9.8 22:28:13 10° WSW 22:41:51 71° S 22:46:24 52° ESE visible
25 Mar 10.3 00:33:48 10° W 00:43:48 47° WSW 00:43:48 47° WSW visible
25 Mar 11.5 02:40:50 10° W 02:41:12 11° W 02:41:12 11° W visible
25 Mar 10.0 19:51:22 10° SW 20:02:20 52° SSE 20:16:25 10° E visible
25 Mar 9.8 21:55:01 10° WSW 22:08:08 71° S 22:15:10 39° ESE visible
26 Mar 10.0 00:00:19 10° W 00:12:34 59° SW 00:12:34 59° SW visible
26 Mar 11.2 02:06:55 10° W 02:09:58 18° W 02:09:58 18° W visible
26 Mar 9.8 21:21:57 10° WSW 21:34:27 70° S 21:43:53 28° E visible
26 Mar 9.8 23:26:55 10° W 23:40:53 65° SSW 23:41:16 65° S visible
27 Mar 10.9 01:33:09 10° W 01:38:40 25° W 01:38:40 25° W visible
27 Mar 9.8 20:48:58 10° WSW 21:00:50 68° S 21:12:33 19° E visible
27 Mar 9.8 22:53:37 10° W 23:07:10 67° SSW 23:09:57 59° SSE visible
28 Mar 10.7 00:59:29 10° W 01:07:20 33° WSW 01:07:20 33° WSW visible
28 Mar 9.8 20:16:04 10° WSW 20:27:17 66° SSE 20:41:13 12° E visible
28 Mar 9.8 22:20:25 10° W 22:33:28 68° S 22:38:36 48° SE visible
29 Mar 10.4 00:25:56 10° W 00:35:59 42° WSW 00:35:59 42° WSW visible
29 Mar 9.8 19:43:16 10° WSW 19:53:48 63° SSE 20:08:06 10° E visible
29 Mar 9.8 21:47:18 10° W 21:59:48 69° S 22:07:14 37° ESE visible
29 Mar 10.1 23:52:30 10° W 00:04:38 50° SW 00:04:38 50° SW visible
30 Mar 11.3 01:59:57 10° W 02:02:01 14° W 02:02:01 14° W visible
30 Mar 9.8 21:14:15 10° W 21:26:09 70° S 21:35:53 27° ESE visible
30 Mar 10.0 23:19:09 10° W 23:32:14 53° SSW 23:33:16 53° SSW visible
31 Mar 11.1 01:25:58 10° W 01:30:40 20° WSW 01:30:40 20° WSW visible
31 Mar 9.8 20:41:19 10° W 20:52:34 70° S 21:04:32 18° ESE visible
31 Mar 10.0 22:45:55 10° W 22:58:37 56° SSW 23:01:55 49° SSE visible
